TimeEST,TemperatureF,Dew PointF,Humidity,Sea Level PressureIn,VisibilityMPH,Wind Direction,Wind SpeedMPH,Gust SpeedMPH,PrecipitationIn,Events,Conditions,WindDirDegrees,DateUTC
12:15 AM,31.6,24.8,76,29.91,10.0,SSE,3.5,-,N/A,,Clear,150,2013-02-13 05:15:00
12:35 AM,30.9,25.3,80,29.91,10.0,Calm,Calm,-,N/A,,Clear,0,2013-02-13 05:35:00
12:55 AM,32.0,25.5,77,29.90,10.0,Calm,Calm,-,N/A,,Scattered Clouds,0,2013-02-13 05:55:00
1:15 AM,32.9,25.2,73,29.88,10.0,Calm,Calm,-,N/A,,Scattered Clouds,0,2013-02-13 06:15:00
1:35 AM,33.4,24.6,70,29.88,10.0,NNW,3.5,-,N/A,,Clear,330,2013-02-13 06:35:00
1:55 AM,32.2,24.3,73,29.87,10.0,NNW,5.8,-,N/A,,Clear,330,2013-02-13 06:55:00
2:15 AM,32.0,24.8,75,29.88,10.0,NNW,5.8,-,N/A,,Mostly Cloudy,340,2013-02-13 07:15:00
2:35 AM,32.5,25.3,75,29.87,10.0,North,6.9,-,N/A,,Overcast,350,2013-02-13 07:35:00
2:55 AM,33.1,26.2,76,29.87,10.0,North,5.8,-,N/A,,Mostly Cloudy,360,2013-02-13 07:55:00
3:15 AM,32.9,26.4,77,29.87,10.0,NNW,5.8,-,N/A,,Clear,340,2013-02-13 08:15:00
3:35 AM,32.4,26.1,78,29.87,10.0,NNW,5.8,-,N/A,,Clear,330,2013-02-13 08:35:00
3:55 AM,32.4,26.2,78,29.86,10.0,North,5.8,-,N/A,,Clear,350,2013-02-13 08:55:00
4:15 AM,32.4,26.4,79,29.85,10.0,North,6.9,-,N/A,,Scattered Clouds,360,2013-02-13 09:15:00
4:35 AM,32.2,26.4,79,29.85,10.0,North,8.1,-,N/A,,Scattered Clouds,360,2013-02-13 09:35:00
4:55 AM,32.0,26.2,79,29.85,10.0,North,5.8,-,N/A,,Scattered Clouds,350,2013-02-13 09:55:00
5:15 AM,32.0,25.9,78,29.85,10.0,North,5.8,-,N/A,,Mostly Cloudy,350,2013-02-13 10:15:00
5:35 AM,31.8,25.9,79,29.84,7.0,North,6.9,-,N/A,,Mostly Cloudy,360,2013-02-13 10:35:00
5:55 AM,31.8,26.2,80,29.83,7.0,North,9.2,-,N/A,,Mostly Cloudy,360,2013-02-13 10:55:00
6:15 AM,32.0,26.2,79,29.82,7.0,North,6.9,-,N/A,,Mostly Cloudy,10,2013-02-13 11:15:00
6:35 AM,32.0,26.1,79,29.81,7.0,North,8.1,-,N/A,,Overcast,10,2013-02-13 11:35:00
6:55 AM,31.8,26.1,79,29.80,7.0,North,9.2,-,N/A,,Overcast,10,2013-02-13 11:55:00
7:15 AM,31.5,25.9,80,29.78,5.0,North,9.2,-,N/A,,Haze,10,2013-02-13 12:15:00
7:35 AM,31.5,25.9,80,29.77,5.0,North,9.2,-,N/A,,Haze,360,2013-02-13 12:35:00
7:55 AM,31.6,26.1,80,29.78,5.0,North,6.9,-,N/A,,Haze,10,2013-02-13 12:55:00
8:15 AM,32.0,26.2,79,29.77,5.0,North,6.9,-,N/A,,Haze,360,2013-02-13 13:15:00
8:35 AM,32.0,26.1,79,29.79,5.0,North,4.6,-,N/A,,Haze,360,2013-02-13 13:35:00
8:55 AM,32.0,26.2,79,29.79,7.0,North,5.8,-,N/A,,Overcast,360,2013-02-13 13:55:00
9:15 AM,32.0,26.4,80,29.79,7.0,North,5.8,-,N/A,,Overcast,350,2013-02-13 14:15:00
9:35 AM,32.4,26.6,79,29.80,7.0,North,5.8,-,N/A,,Overcast,350,2013-02-13 14:35:00
9:55 AM,32.9,26.6,78,29.79,7.0,NNW,8.1,-,N/A,,Overcast,340,2013-02-13 14:55:00
10:15 AM,33.4,26.6,76,29.81,7.0,NNW,5.8,-,N/A,,Overcast,330,2013-02-13 15:15:00
10:35 AM,33.4,26.8,77,29.81,7.0,NNW,5.8,-,N/A,,Overcast,330,2013-02-13 15:35:00
10:55 AM,33.4,26.6,76,29.82,7.0,WNW,8.1,-,N/A,,Overcast,300,2013-02-13 15:55:00
11:15 AM,33.4,26.6,76,29.81,7.0,NNW,5.8,-,N/A,,Overcast,330,2013-02-13 16:15:00
11:35 AM,33.3,26.6,77,29.80,7.0,NW,5.8,-,N/A,,Overcast,320,2013-02-13 16:35:00
11:55 AM,33.4,26.6,76,29.79,7.0,NNW,5.8,-,N/A,,Overcast,330,2013-02-13 16:55:00
12:15 PM,33.3,27.0,78,29.78,1.2,NNW,8.1,-,N/A,Snow,Light Snow,330,2013-02-13 17:15:00
12:35 PM,32.2,28.2,85,29.77,0.8,NW,5.8,-,N/A,Snow,Light Snow,320,2013-02-13 17:35:00
12:55 PM,31.8,28.4,87,29.76,0.5,NNW,6.9,-,N/A,Snow,Snow,330,2013-02-13 17:55:00
1:15 PM,31.6,28.4,88,29.75,0.2,NW,4.6,-,N/A,Snow,Snow,320,2013-02-13 18:15:00
1:35 PM,31.5,28.2,88,29.75,0.2,NW,4.6,-,N/A,Snow,Snow,310,2013-02-13 18:35:00
1:55 PM,31.5,28.2,88,29.75,0.8,NW,4.6,-,N/A,Snow,Light Snow,310,2013-02-13 18:55:00
2:15 PM,31.8,28.0,86,29.75,1.2,WNW,5.8,-,N/A,Snow,Light Snow,300,2013-02-13 19:15:00
2:35 PM,32.2,28.4,86,29.74,1.5,WNW,3.5,-,N/A,Snow,Light Snow,300,2013-02-13 19:35:00
2:55 PM,32.5,28.6,85,29.75,2.5,West,4.6,-,N/A,,Overcast,280,2013-02-13 19:55:00
3:15 PM,32.7,28.9,86,29.76,3.0,WSW,4.6,-,N/A,,Overcast,250,2013-02-13 20:15:00
3:35 PM,33.1,28.9,85,29.76,3.0,WNW,6.9,-,N/A,,Overcast,290,2013-02-13 20:35:00
3:55 PM,33.8,28.0,79,29.76,5.0,WNW,5.8,-,N/A,,Haze,300,2013-02-13 20:55:00
4:15 PM,34.0,27.7,78,29.77,5.0,WNW,5.8,-,N/A,,Haze,290,2013-02-13 21:15:00
4:55 PM,34.0,27.3,77,29.78,7.0,WNW,5.8,-,N/A,,Overcast,290,2013-02-13 21:55:00
5:15 PM,33.6,27.1,77,29.78,7.0,Calm,Calm,-,N/A,,Mostly Cloudy,0,2013-02-13 22:15:00
5:35 PM,33.4,27.1,78,29.78,7.0,WSW,3.5,-,N/A,,Mostly Cloudy,240,2013-02-13 22:35:00
5:55 PM,32.7,27.1,80,29.79,7.0,WSW,5.8,-,N/A,,Scattered Clouds,250,2013-02-13 22:55:00
6:15 PM,31.6,26.2,80,29.80,5.0,WSW,5.8,-,N/A,,Haze,250,2013-02-13 23:15:00
6:35 PM,30.9,25.9,82,29.81,5.0,SW,3.5,-,N/A,,Haze,230,2013-02-13 23:35:00
6:55 PM,29.7,25.0,83,29.82,4.0,SW,4.6,-,N/A,,Scattered Clouds,220,2013-02-13 23:55:00
7:15 PM,28.4,24.6,86,29.83,4.0,SSW,4.6,-,N/A,,Clear,210,2013-02-14 00:15:00
7:35 PM,27.9,24.4,87,29.84,3.0,SSW,5.8,-,N/A,,Clear,200,2013-02-14 00:35:00
7:55 PM,27.3,24.3,88,29.85,2.5,SSW,5.8,-,N/A,,Clear,200,2013-02-14 00:55:00
8:15 PM,26.4,23.4,88,29.86,2.0,SSW,5.8,-,N/A,,Clear,200,2013-02-14 01:15:00
8:35 PM,25.9,22.8,88,29.86,3.0,SSW,5.8,-,N/A,,Clear,210,2013-02-14 01:35:00
8:55 PM,25.5,22.3,88,29.86,3.0,SSW,5.8,-,N/A,,Clear,210,2013-02-14 01:55:00
9:15 PM,24.4,21.0,87,29.86,2.0,South,4.6,-,N/A,,Clear,190,2013-02-14 02:15:00
9:35 PM,21.4,18.5,89,29.87,1.8,South,5.8,-,N/A,,Mist,190,2013-02-14 02:35:00
9:55 PM,21.6,18.7,89,29.87,2.0,South,4.6,-,N/A,,Clear,190,2013-02-14 02:55:00
10:15 PM,21.7,18.7,88,29.88,2.5,South,5.8,-,N/A,,Clear,190,2013-02-14 03:15:00
10:35 PM,22.1,19.4,89,29.88,2.5,South,5.8,-,N/A,,Clear,190,2013-02-14 03:35:00
10:55 PM,23.0,20.1,89,29.88,3.0,South,5.8,-,N/A,,Clear,190,2013-02-14 03:55:00
11:15 PM,23.5,20.5,88,29.88,2.5,SSE,5.8,-,N/A,,Clear,160,2013-02-14 04:15:00
11:35 PM,23.0,20.1,89,29.88,1.5,South,5.8,-,N/A,,Mist,190,2013-02-14 04:35:00
11:55 PM,23.4,20.5,89,29.88,1.8,South,3.5,-,N/A,,Mist,190,2013-02-14 04:55:00